Location: ??????
(42.0089°N, 44.3281°E)
Time: 07:51:03
(UTC+00:00)

USA 267 - Pass Details

Date: 01 June 2022
Orbit: 1101 x 1106 km, 123.0° (Epoch: 01 July)

Event Time Altitude Azimuth Distance (km) Brightness Sun altitude
Rises 18:07:25 0° 58° (ENE) 3,922 6.1 -14.4°
Reaches altitude 10° 18:10:23 10° 45° (NE) 2,964 5.6 -14.8°
Maximum altitude 18:15:21 24° 355° (N) 2,110 5.4 -15.4°
Drops below altitude 10° 18:20:20 10° 305° (NW) 2,965 6.7 -15.9°
Sets 18:23:18 0° 293° (WNW) 3,923 7.2 -16.3°
